軌道要素
Epoch 2022 Jan. 21.0 TT = JDT 2459600.5
T 2022 Jan. 29.89470 TT Rudenko
q 1.3796657 (2000.0) P Q
z +0.0025588 Peri. 152.95428 -0.69894308 -0.70611393
+/-0.0000129 Node 340.66181 +0.57840152 -0.46477009
e 0.9964698 Incl. 20.04416 +0.42063078 -0.53422082
From 128 observations 2022 Jan. 29-Apr. 2, mean residual 0".5.
|